• In Austria
  • List of Countries
  • For 7 days
  • Water Temperature
  • Satellite Maps
  • Weather Map
  • News
  • Weather Widgets
  • user-avatar
    Login

    Hourly Weather Salzburg

    Today, 27 May, Sunday

    Time Temperature Precipitation Wind Pressure Humidity
    00:00 +9°C° 0 mm 1 mps 630 mmHg 92%
    01:00 +8°C° 0 mm 1 mps 630 mmHg 92%
    02:00 +8°C° 0 mm 1 mps 629 mmHg 91%
    03:00 +8°C° 0 mm 1 mps 629 mmHg 91%
    04:00 +8°C° 0 mm 1 mps 629 mmHg 90%
    05:00 +9°C° 0 mm 1 mps 629 mmHg 85%
    06:00 +11°C° 0 mm 1 mps 630 mmHg 80%
    07:00 +13°C° 0 mm 1 mps 631 mmHg 75%
    08:00 +15°C° 0.1 mm 1 mps 631 mmHg 67%
    09:00 +18°C° 0.1 mm 1 mps 632 mmHg 59%
    10:00 +20°C° 0.1 mm 1 mps 633 mmHg 51%
    11:00 +20°C° 0.3 mm 1 mps 633 mmHg 51%
    12:00 +21°C° 0.3 mm 1 mps 632 mmHg 51%
    13:00 +21°C° 0.3 mm 1 mps 632 mmHg 52%
    14:00 +20°C° 0.5 mm 1 mps 632 mmHg 56%
    15:00 +19°C° 0.5 mm 1 mps 631 mmHg 61%
    16:00 +19°C° 0.5 mm 1 mps 631 mmHg 66%
    17:00 +16°C° 0.2 mm 1 mps 631 mmHg 71%
    18:00 +15°C° 0.2 mm 1 mps 630 mmHg 77%
    19:00 +14°C° 0.2 mm 1 mps 630 mmHg 83%
    20:00 +13°C° 0 mm 1 mps 630 mmHg 83%
    21:00 +11°C° 0 mm 1 mps 629 mmHg 84%
    22:00 +10°C° 0 mm 1 mps 629 mmHg 85%
    23:00 +10°C° 0 mm 1 mps 629 mmHg 85%

    Tomorrow, 28 May, Monday

    Time Temperature Precipitation Wind Pressure Humidity
    00:00 +9°C° 0 mm 1 mps 629 mmHg 84%
    01:00 +9°C° 0 mm 1 mps 629 mmHg 83%
    02:00 +8°C° 0 mm 1 mps 628 mmHg 82%
    03:00 +8°C° 0 mm 1 mps 628 mmHg 82%
    04:00 +8°C° 0 mm 1 mps 628 mmHg 82%
    05:00 +10°C° 0 mm 1 mps 629 mmHg 77%
    06:00 +12°C° 0 mm 1 mps 630 mmHg 73%
    07:00 +14°C° 0 mm 1 mps 630 mmHg 68%
    08:00 +16°C° 0 mm 1 mps 631 mmHg 60%
    09:00 +19°C° 0 mm 1 mps 632 mmHg 52%
    10:00 +21°C° 0 mm 1 mps 632 mmHg 44%
    11:00 +21°C° 0.3 mm 2 mps 632 mmHg 45%
    12:00 +23°C° 0.3 mm 2 mps 632 mmHg 45%
    13:00 +23°C° 0.3 mm 2 mps 632 mmHg 46%
    14:00 +23°C° 0.4 mm 2 mps 632 mmHg 48%
    15:00 +21°C° 0.4 mm 2 mps 631 mmHg 51%
    16:00 +20°C° 0.4 mm 2 mps 631 mmHg 54%
    17:00 +19°C° 0.3 mm 2 mps 630 mmHg 63%
    18:00 +17°C° 0.3 mm 2 mps 630 mmHg 72%
    19:00 +16°C° 0.3 mm 2 mps 629 mmHg 81%
    20:00 +14°C° 0.1 mm 2 mps 629 mmHg 83%
    21:00 +13°C° 0.1 mm 2 mps 629 mmHg 86%
    22:00 +12°C° 0.1 mm 2 mps 628 mmHg 88%
    23:00 +10°C° 0 mm 2 mps 628 mmHg 89%

    Day after tomorrow, 29 May, Tuesday

    Time Temperature Precipitation Wind Pressure Humidity
    00:00 +10°C° 0 mm 2 mps 628 mmHg 90%
    01:00 +9°C° 0 mm 2 mps 628 mmHg 90%
    02:00 +9°C° 0 mm 2 mps 627 mmHg 90%
    03:00 +9°C° 0 mm 2 mps 627 mmHg 90%
    04:00 +8°C° 0 mm 2 mps 627 mmHg 91%
    05:00 +10°C° 0 mm 2 mps 627 mmHg 86%
    06:00 +12°C° 0 mm 2 mps 628 mmHg 80%
    07:00 +14°C° 0 mm 1 mps 628 mmHg 75%
    08:00 +16°C° 0 mm 1 mps 629 mmHg 68%
    09:00 +18°C° 0 mm 1 mps 629 mmHg 60%
    10:00 +20°C° 0 mm 1 mps 630 mmHg 52%
    11:00 +21°C° 0.1 mm 1 mps 630 mmHg 51%
    12:00 +20°C° 0.1 mm 2 mps 630 mmHg 50%
    13:00 +21°C° 0.1 mm 2 mps 630 mmHg 49%
    14:00 +20°C° 1 mm 2 mps 629 mmHg 56%
    15:00 +19°C° 1 mm 2 mps 629 mmHg 62%
    16:00 +19°C° 1 mm 2 mps 628 mmHg 68%
    17:00 +18°C° 1.8 mm 1 mps 628 mmHg 76%
    18:00 +16°C° 1.8 mm 1 mps 627 mmHg 83%
    19:00 +14°C° 1.8 mm 1 mps 627 mmHg 90%
    20:00 +13°C° 0.9 mm 1 mps 626 mmHg 92%
    21:00 +12°C° 0.9 mm 1 mps 626 mmHg 93%
    22:00 +11°C° 0.9 mm 1 mps 626 mmHg 94%
    23:00 +11°C° 0.6 mm 1 mps 626 mmHg 94%

    30 May, Wednesday

    Time Temperature Precipitation Wind Pressure Humidity
    00:00 +10°C° 0.6 mm 1 mps 626 mmHg 95%
    01:00 +10°C° 0.6 mm 1 mps 625 mmHg 95%
    02:00 +9°C° 0.1 mm 1 mps 625 mmHg 95%
    03:00 +9°C° 0.1 mm 1 mps 625 mmHg 95%
    04:00 +9°C° 0.1 mm 1 mps 624 mmHg 94%
    05:00 +10°C° 0 mm 1 mps 625 mmHg 90%
    06:00 +12°C° 0 mm 1 mps 626 mmHg 86%
    07:00 +13°C° 0 mm 0 mps 627 mmHg 82%
    08:00 +15°C° 0.1 mm 1 mps 627 mmHg 74%
    09:00 +18°C° 0.1 mm 1 mps 628 mmHg 67%
    10:00 +20°C° 0.1 mm 1 mps 628 mmHg 59%
    11:00 +20°C° 0.6 mm 1 mps 628 mmHg 60%
    12:00 +20°C° 0.6 mm 2 mps 628 mmHg 60%
    13:00 +20°C° 0.6 mm 2 mps 628 mmHg 61%
    14:00 +19°C° 1.6 mm 2 mps 628 mmHg 65%
    15:00 +19°C° 1.6 mm 2 mps 627 mmHg 70%
    16:00 +18°C° 1.6 mm 2 mps 627 mmHg 75%
    17:00 +18°C° 1 mm 1 mps 626 mmHg 80%
    18:00 +15°C° 1 mm 1 mps 626 mmHg 85%
    19:00 +14°C° 1 mm 1 mps 626 mmHg 90%
    20:00 +13°C° 0.4 mm 1 mps 625 mmHg 92%
    21:00 +12°C° 0.4 mm 1 mps 625 mmHg 93%
    22:00 +11°C° 0.4 mm 1 mps 625 mmHg 94%
    23:00 +11°C° 0.6 mm 1 mps 625 mmHg 94%

    31 May, Thursday

    Time Temperature Precipitation Wind Pressure Humidity
    00:00 +10°C° 0.6 mm 1 mps 625 mmHg 95%
    01:00 +10°C° 0.6 mm 1 mps 625 mmHg 95%
    02:00 +10°C° 0.4 mm 1 mps 624 mmHg 94%
    03:00 +9°C° 0.4 mm 1 mps 624 mmHg 94%
    04:00 +9°C° 0.4 mm 1 mps 624 mmHg 94%
    05:00 +10°C° 0.2 mm 1 mps 625 mmHg 91%
    06:00 +12°C° 0.2 mm 1 mps 626 mmHg 89%
    07:00 +13°C° 0.2 mm 1 mps 626 mmHg 86%
    08:00 +14°C° 0.3 mm 1 mps 627 mmHg 81%
    09:00 +16°C° 0.3 mm 1 mps 627 mmHg 77%
    10:00 +18°C° 0.3 mm 1 mps 628 mmHg 72%
    11:00 +18°C° 1.2 mm 1 mps 627 mmHg 73%
    12:00 +18°C° 1.2 mm 1 mps 627 mmHg 74%
    13:00 +19°C° 1.2 mm 1 mps 627 mmHg 75%
    14:00 +18°C° 1.4 mm 1 mps 627 mmHg 77%
    15:00 +18°C° 1.4 mm 1 mps 627 mmHg 79%
    16:00 +16°C° 1.4 mm 1 mps 627 mmHg 81%
    17:00 +16°C° 0.9 mm 1 mps 626 mmHg 85%
    18:00 +15°C° 0.9 mm 1 mps 626 mmHg 89%
    19:00 +14°C° 0.9 mm 1 mps 626 mmHg 92%
    20:00 +13°C° 0.4 mm 1 mps 626 mmHg 93%
    21:00 +12°C° 0.4 mm 1 mps 626 mmHg 94%
    22:00 +11°C° 0.4 mm 1 mps 626 mmHg 94%
    23:00 +11°C° 0.4 mm 1 mps 626 mmHg 95%

    1 June, Friday

    Time Temperature Precipitation Wind Pressure Humidity
    00:00 +10°C° 0.4 mm 1 mps 626 mmHg 95%
    01:00 +10°C° 0.4 mm 1 mps 626 mmHg 95%
    02:00 +10°C° 0.5 mm 1 mps 626 mmHg 95%
    03:00 +10°C° 0.5 mm 1 mps 626 mmHg 96%
    04:00 +10°C° 0.5 mm 1 mps 626 mmHg 96%
    05:00 +10°C° 0.4 mm 1 mps 627 mmHg 95%
    06:00 +10°C° 0.4 mm 0 mps 627 mmHg 94%
    07:00 +11°C° 0.4 mm 0 mps 628 mmHg 92%
    08:00 +13°C° 0.6 mm 1 mps 628 mmHg 90%
    09:00 +14°C° 0.6 mm 1 mps 628 mmHg 88%
    10:00 +14°C° 0.6 mm 1 mps 629 mmHg 86%
    11:00 +15°C° 0.9 mm 1 mps 629 mmHg 85%
    12:00 +15°C° 0.9 mm 1 mps 629 mmHg 84%
    13:00 +15°C° 0.9 mm 1 mps 629 mmHg 83%
    14:00 +15°C° 0.7 mm 1 mps 629 mmHg 83%
    15:00 +16°C° 0.7 mm 1 mps 629 mmHg 83%
    16:00 +15°C° 0.7 mm 0 mps 629 mmHg 82%
    17:00 +14°C° 0.5 mm 0 mps 629 mmHg 85%
    18:00 +13°C° 0.5 mm 0 mps 629 mmHg 88%
    19:00 +12°C° 0.5 mm 0 mps 628 mmHg 91%
    20:00 +12°C° 0.5 mm 1 mps 628 mmHg 92%
    21:00 +11°C° 0.5 mm 1 mps 628 mmHg 93%
    22:00 +10°C° 0.5 mm 1 mps 628 mmHg 94%
    23:00 +10°C° 0.1 mm 1 mps 628 mmHg 93%
    Show more